User: anonymous
Location: Unspecified
(0.0000°N, 0.0000°E)
Time: 02:43:57
(UTC+02:00)
Language:

YAOGAN 1 - Orbit

View from above orbital plane
View from above orbital plane
View from above satellite
View from above satellite

Ground track
Ground track

The orbit data is extracted from the following two-line orbital elements,

1 29092U 06015A   14113.65103650  .00000945  00000-0  12658-3 0   264
2 29092 097.9771 109.3623 0001455 104.2466 026.7235 14.81746492431915
Epoch (UTC): 23 April 2014 15:37:29
Eccentricity: 0.0001455
inclination: 97.9771°
perigee height: 623 km
apogee height: 625 km
right ascension of ascending node: 109.3623°
argument of perigee: 104.2466°
revolutions per day: 14.81746492
mean anomaly at epoch: 26.7235°
orbit number at epoch: 43191

The dashed part of the orbit path shows where the satellite is in the earth's shadow,  

DLR